Regional Weather Roundup
Issued by NWS Goodland, KS

Home | Current Version | Previous Version | Text Only | Print | Product List | Glossary Off
Versions: 1 2 3 4 5 6 7 8 9 10 11 12 13 14 15 16 17 18 19 20 21 22 23 24 25 26 27 28 29 30 31 32 33 34 35 36 37 38 39 40 41 42 43 44 45 46 47 48 49 50

000
ASUS43 KGLD 302208
RWRGLD

GOODLAND FORECAST AREA HOURLY WEATHER ROUNDUP
NATIONAL WEATHER SERVICE GOODLAND KS
400 PM MDT FRI SEP 30 2016

...OFFICIAL OBSERVATIONS...

CITY           SKY/WX    TMP DP  RH WIND       PRES   REMARKS
GOODLAND KS    MOSUNNY   73  46  38 SE17G23   30.12S
HILL CITY KS   MOSUNNY   69  48  47 E9        30.15F
IMPERIAL NEB   MOSUNNY   72  44  36 SE16      30.14F
MCCOOK NEB     MOSUNNY   72  46  39 SE13      30.14F
AKRON CO       CLOUDY    72  43  35 E12       30.15F
BURLINGTON CO  SUNNY     73  44  35 SE15G24   30.13F
LIMON CO       SUNNY     73  41  31 N12       30.17S
$$

...UNOFFICIAL OBSERVATIONS...

CITY           SKY/WX    TMP DP  RH WIND       PRES   REMARKS
COLBY KS       SUNNY     73  48  40 SE15G22   30.14S
LENORA KS        N/A     68  32  26 MISG        N/A
NORTON KS      SUNNY     68  41  37 E9        30.15S
SHARON SPRINGS   N/A     77  51  39 SE18G26     N/A
KIT CARSON CO    N/A     78  48  34 MISG        N/A
$$




USA.gov is the U.S. government's official web portal to all federal, state and local government web resources and services.